Weather History for Poplar Bluff, MO

Change the Weather History Date:

Thursday, December 6, 2012

  Actual Average Record
Temperature  
Mean Temperature 49 °F -  
Max Temperature 55 °F 50 °F 77 °F (1932)
Min Temperature 43 °F 30 °F 10 °F (2002)
Degree Days  
Heating Degree Days 16    
Moisture  
Dew Point 46 °F    
Average Humidity 80    
Maximum Humidity 96    
Minimum Humidity 64    
Precipitation  
Precipitation 0.00 in - - ()
Sea Level Pressure  
Sea Level Pressure 29.99 in    
Wind  
Wind Speed 4 mph (ESE)    
Max Wind Speed 10 mph    
Max Gust Speed -    
Visibility 8 miles    
Events Fog    
Averages and records for this station are not official NWS values.
T = Trace of Precipitation, MM = Missing Value Source: NWS Daily Summary

Daily Weather History Graph

Daily Weather History Graph

Search for Another Location

Airport:

Trip Planner

Search our weather history database for the weather conditions in past years. The results will help you decide how hot, cold, wet, or windy it might be!

Date:

Astronomy

Dec. 06, 2012 Rise Set
Actual Time 7:00 AM CST 4:44 PM CST
Civil Twilight 6:31 AM CST 5:13 PM CST
Nautical Twilight 5:59 AM CST 5:45 PM CST
Astronomical Twilight 5:27 AM CST 6:17 PM CST
Moon No Moon Rise 12:01 PM CST (12/6)
Length of Visible Light 10h 42m
Length of Day
9h 44m
Waning Gibbous, 49% of the Moon is Illuminated
Dec 6
Waning Gibbous
Dec 13
New
Dec 19
First Quarter
Dec 28
Full
Jan 4
Last Quarter

Hourly Weather History & Observations

Time (CST) Temp. Windchill Dew Point Humidity Pressure Visibility Wind Dir Wind Speed Gust Speed Precip Events Conditions
2:53 AM 46.0 °F 43.9 °F 37.9 °F 73% 30.10 in 10.0 mi NE 4.6 mph - N/A   Overcast
3:53 AM 44.1 °F 42.5 °F 37.9 °F 79% 30.08 in 10.0 mi NE 3.5 mph - N/A   Overcast
4:53 AM 43.0 °F 40.3 °F 37.0 °F 80% 30.06 in 10.0 mi NNE 4.6 mph - N/A   Overcast
5:53 AM 45.0 °F 43.5 °F 37.9 °F 76% 30.07 in 10.0 mi NE 3.5 mph - N/A   Overcast
6:53 AM 45.0 °F - 39.0 °F 80% 30.08 in 10.0 mi Calm Calm - N/A   Overcast
7:53 AM 46.0 °F 44.8 °F 37.9 °F 73% 30.08 in 10.0 mi NNE 3.5 mph - N/A   Overcast
8:53 AM 46.9 °F - 39.9 °F 77% 30.07 in 10.0 mi ENE 4.6 mph - N/A   Overcast
9:53 AM 50.0 °F - 39.9 °F 68% 30.07 in 10.0 mi East 3.5 mph - N/A   Overcast
10:53 AM 51.1 °F - 39.9 °F 66% 30.06 in 10.0 mi Calm Calm - N/A   Overcast
11:53 AM 53.1 °F - 41.0 °F 64% 30.01 in 10.0 mi Calm Calm - N/A   Overcast
12:53 PM 54.0 °F - 44.1 °F 69% 30.00 in 10.0 mi SW 3.5 mph - N/A   Overcast
1:34 PM 55.4 °F - 44.6 °F 67% 29.98 in 10.0 mi SSW 4.6 mph - N/A   Overcast
1:53 PM 55.0 °F - 44.1 °F 67% 29.98 in 10.0 mi Calm Calm - N/A   Overcast
2:26 PM 55.4 °F - 46.4 °F 72% 29.96 in 10.0 mi ESE 4.6 mph - N/A   Overcast
2:53 PM 55.9 °F - 46.0 °F 69% 29.96 in 10.0 mi Variable 3.5 mph - N/A   Overcast
3:53 PM 55.9 °F - 46.9 °F 72% 29.96 in 10.0 mi ESE 3.5 mph - N/A   Overcast
4:53 PM 55.0 °F - 48.0 °F 77% 29.95 in 9.0 mi ESE 4.6 mph - N/A   Overcast
5:18 PM 55.4 °F - 48.2 °F 77% 29.95 in 9.0 mi Calm Calm - N/A   Overcast
5:53 PM 55.0 °F - 48.9 °F 80% 29.95 in 10.0 mi Calm Calm - N/A   Overcast
6:53 PM 55.0 °F - 52.0 °F 89% 29.95 in 7.0 mi SSE 8.1 mph - N/A   Overcast
7:05 PM 55.4 °F - 51.8 °F 88% 29.95 in 6.0 mi SSE 10.4 mph - N/A   Overcast
7:23 PM 55.4 °F - 51.8 °F 88% 29.95 in 6.0 mi SSE 8.1 mph - N/A   Overcast
7:53 PM 55.0 °F - 53.1 °F 93% 29.95 in 4.0 mi SSE 8.1 mph - N/A   Overcast
8:53 PM 55.0 °F - 53.1 °F 93% 29.96 in 6.0 mi Calm Calm - N/A   Overcast
9:53 PM 55.0 °F - 53.1 °F 93% 29.95 in 4.0 mi Calm Calm - N/A   Overcast
10:41 PM 55.4 °F - 53.6 °F 94% 29.93 in 2.0 mi SSE 5.8 mph - N/A   Overcast
10:48 PM 55.4 °F - 53.6 °F 94% 29.93 in 1.0 mi SSE 4.6 mph - N/A   Overcast
10:53 PM 55.0 °F - 54.0 °F 96% 29.94 in 0.5 mi SSE 4.6 mph - N/A Fog Fog
11:09 PM 55.4 °F - 53.6 °F 94% 29.93 in 0.2 mi SSE 3.5 mph - N/A Fog Fog
11:53 PM 55.0 °F - 54.0 °F 96% 29.93 in 0.2 mi Calm Calm - N/A Fog Fog